Regional Weather Roundup
Issued by NWS

Home | Current Version | Previous Version | Graphics & Text | Print | Product List | Glossary On
Versions: 1 2 3 4 5 6 7 8 9 10 11 12 13 14 15 16 17 18 19 20 21 22 23 24 25 26 27 28 29 30 31 32 33 34 35 36 37 38 39 40 41 42 43 44 45 46 47 48 49 50
000
ASUS43 KOAX 221802
RWRNE

WEATHER ROUNDUP FOR NEBRASKA
NATIONAL WEATHER SERVICE OMAHA NE
100 PM CDT SAT JUL 22 2017

NOTES: SATELLITE DATA IS BEING USED TO AUGMENT CLOUD COVER ABOVE
       12000 FEET.
       "FAIR" INDICATES FEW OR NO CLOUDS BELOW 12,000 FEET WITH NO
       SIGNIFICANT WEATHER AND/OR OBSTRUCTIONS TO VISIBILITY.


NEZ001>004-019>022-054>056-221900-
NEBRASKA PANHANDLE

CITY           SKY/WX    TMP DP  RH WIND       PRES   REMARKS
SCOTTSBLUFF    SUNNY     89  54  30 E12       30.11S
6HR MIN TEMP:  63; 6HR MAX TEMP:  90;

ALLIANCE       SUNNY     88  51  28 S14       30.11S
6HR MIN TEMP:  60; 6HR MAX TEMP:  90;

CHADRON        PTSUNNY   89  51  27 VRB6      30.06S
6HR MIN TEMP:  60; 6HR MAX TEMP:  90;

GORDON         FAIR      86  51  30 SE8       30.09S
6HR MIN TEMP:  62; 6HR MAX TEMP:  86;

KIMBALL        SUNNY     86  52  30 SE15G22   30.18F
SIDNEY         SUNNY     86  51  29 SE16G24   30.16F
6HR MIN TEMP:  64; 6HR MAX TEMP:  87;

$$

NEZ057>060-069>072-079>082-221900-
SOUTHWEST NEBRASKA

CITY           SKY/WX    TMP DP  RH WIND       PRES   REMARKS
NORTH PLATTE   CLOUDY    80  67  64 N9        30.08R
6HR MIN TEMP:  66; 6HR MAX TEMP:  84; 6HR PCP:  0.02;

IMPERIAL       CLOUDY    80  58  46 W5        30.11R
6HR MIN TEMP:  69; 6HR MAX TEMP:  80;

LEXINGTON      CLOUDY    84  69  59 CALM      30.02R
MCCOOK         CLOUDY    93  57  29 NE13      30.01S HX  91
6HR MIN TEMP:  71; 6HR MAX TEMP:  94;

OGALLALA       LGT RAIN  82  58  44 NE7       30.10S
$$

NEZ005>010-023>029-035>040-094-221900-
NORTH CENTRAL NEBRASKA

CITY           SKY/WX    TMP DP  RH WIND       PRES   REMARKS
VALENTINE      CLOUDY    89  60  37 E7        30.05R
6HR MIN TEMP:  67; 6HR MAX TEMP:  89;

AINSWORTH      CLOUDY    78  68  71 CALM      30.06R
BROKEN BOW     CLOUDY    83  68  60 N9        30.02R
6HR MIN TEMP:  67; 6HR MAX TEMP:  86;

O`NEILL        CLOUDY    80  73  79 N9        29.99S
ORD            CLOUDY    87  64  46 N8        29.96R
6HR MIN TEMP:  72; 6HR MAX TEMP:  89;

THEDFORD       CLOUDY    82  64  53 S3        30.09S
$$

NEZ041-046>049-061>064-073>077-083>087-221900-
SOUTH CENTRAL NEBRASKA

CITY           SKY/WX    TMP DP  RH WIND       PRES   REMARKS
GRAND ISLAND   MOSUNNY   84  76  76 N9        29.93R HX  93
6HR MIN TEMP:  71; 6HR MAX TEMP:  85; 6HR PCP: TRACE;

AURORA         CLOUDY    85  78  78 NE7       29.92F HX  97
HASTINGS       SUNNY     86  74  67 NE10      29.94F HX  94
6HR MIN TEMP:  73; 6HR MAX TEMP:  86;

HEBRON         SUNNY     92  76  59 NE13      29.89S HX 104
HOLDREGE       SUNNY     84  69  61 NE6       29.99R
KEARNEY        MOSUNNY   86  71  60 NE12      29.96S HX  91
YORK           MOSUNNY   84  77  79 NE9       29.92S HX  94
$$

NEZ011>018-030>034-042>045-221900-
NORTHEAST NEBRASKA

CITY           SKY/WX    TMP DP  RH WIND       PRES   REMARKS
NORFOLK        MOSUNNY   89  71  55 N17       29.92S HX  95
6HR MIN TEMP:  77; 6HR MAX TEMP:  89;

ALBION         MOSUNNY   89  70  53 NE9       29.95R HX  94
BLAIR          SUNNY     87  75  66 N12G17    29.87F HX  97
COLUMBUS       CLOUDY    91  72  53 N9        29.91R HX  98
FREMONT        SUNNY     89  73  59 N8        29.88F HX  97
TEKAMAH        SUNNY     88  74  63 N14       29.86F HX  96
6HR MIN TEMP:  76; 6HR MAX TEMP:  88;

WAYNE          CLOUDY    82  78  88 N12       29.92R HX  92
$$

NEZ050>053-065>068-078-088>093-221900-
SOUTHEAST NEBRASKA

CITY           SKY/WX    TMP DP  RH WIND       PRES   REMARKS
LINCOLN        SUNNY     90  77  65 NE13      29.88S HX 103
6HR MIN TEMP:  78; 6HR MAX TEMP:  90;

OMAHA EPPLEY   MOSUNNY   89  76  65 N12       29.85S HX 100
6HR MIN TEMP:  79; 6HR MAX TEMP:  89;

BEATRICE       MOSUNNY   90  79  69 N13G18    29.88R HX 106
NEBRASKA CITY  SUNNY     88  83  86 N7        29.86S HX 111
PLATTSMOUTH    SUNNY     89  78  70 NW8       29.86S HX 102
$$

NEZ044-045-051>053-067-221900-
OMAHA AREA

CITY           SKY/WX    TMP DP  RH WIND       PRES   REMARKS
OMAHA EPPLEY   MOSUNNY   89  76  65 N12       29.85S HX 100
6HR MIN TEMP:  79; 6HR MAX TEMP:  89;

BLAIR          SUNNY     87  75  66 N12G17    29.87F HX  97
FREMONT        SUNNY     89  73  59 N8        29.88F HX  97
MILLARD        SUNNY     91  77  62 N9        29.86S HX 104
OFFUTT AFB     SUNNY     91  74  58 N12       29.85S HX 101
PLATTSMOUTH    SUNNY     89  78  70 NW8       29.86S HX 102
WAHOO          FAIR      89  74  62 N8G16     29.88S HX  97
$$



USA.gov is the U.S. government's official web portal to all federal, state and local government web resources and services.